Location: East Guldeford
(50.9500°N, 0.7500°E)
Time: 18:28:44
(UTC+00:00)

SPOT 1/Viking Rocket - Pass Details

Date: 12 May 2021
Orbit: 776 x 795 km, 98.4° (Epoch: 16 June)

Event Time Altitude Azimuth Distance (km) Brightness Sun altitude
Exits shadow 20:52:17 - 165° (SSE) 2,408 5.5 -10.1°
Reaches altitude 10° 20:52:26 10° 165° (SSE) 2,352 5.5 -10.2°
Maximum altitude 20:57:38 87° 255° (WSW) 798 3.6 -10.7°
Drops below altitude 10° 21:02:52 10° 345° (NNW) 2,358 7.1 -11.3°
Sets 21:05:12 0° 346° (NNW) 3,288 8.0 -11.5°
